owner,sensor,date,latitude,longitude,vertical_datum,mass_concentration_of_oxygen_in_sea_water,qcFlag 
DISL,ioos:station:DISL:BSCA:1,2018-11-01T03:00:00Z,30.3288,-87.8293,1.871,7.2,1111122 
DISL,ioos:station:DISL:BSCA:1,2018-11-01T04:00:00Z,30.3288,-87.8293,1.913,7.52,1111122 
DISL,ioos:station:DISL:BSCA:1,2018-11-01T05:30:00Z,30.3288,-87.8293,1.995,7.36,1111122 
DISL,ioos:station:DISL:BSCA:1,2018-11-01T06:00:00Z,30.3288,-87.8293,2.007,7.3,1111122 
DISL,ioos:station:DISL:BSCA:1,2018-11-01T07:00:00Z,30.3288,-87.8293,2.062,7.23,1111122 
DISL,ioos:station:DISL:BSCA:1,2018-11-01T08:30:00Z,30.3288,-87.8293,2.183,7.21,1111122 
DISL,ioos:station:DISL:BSCA:1,2018-11-01T09:30:00Z,30.3288,-87.8293,2.278,7.1,1111122 
DISL,ioos:station:DISL:BSCA:1,2018-11-01T10:00:00Z,30.3288,-87.8293,2.3,7.09,1111122 
DISL,ioos:station:DISL:BSCA:1,2018-11-01T11:00:00Z,30.3288,-87.8293,2.301,7.0,1111122 
DISL,ioos:station:DISL:BSCA:1,2018-11-01T12:30:00Z,30.3288,-87.8293,2.338,6.88,1111122 
DISL,ioos:station:DISL:BSCA:1,2018-11-01T13:30:00Z,30.3288,-87.8293,2.578,6.86,1111122 
DISL,ioos:station:DISL:BSCA:1,2018-11-01T14:30:00Z,30.3288,-87.8293,2.694,6.75,1111122 
DISL,ioos:station:DISL:BSCA:1,2018-11-01T15:00:00Z,30.3288,-87.8293,2.533,6.76,1111122 
DISL,ioos:station:DISL:BSCA:1,2018-11-01T16:30:00Z,30.3288,-87.8293,2.058,6.38,1111122 
DISL,ioos:station:DISL:BSCA:1,2018-11-01T17:00:00Z,30.3288,-87.8293,1.942,5.64,1111122 
DISL,ioos:station:DISL:BSCA:1,2018-11-01T18:00:00Z,30.3288,-87.8293,1.928,6.23,1111122 
DISL,ioos:station:DISL:BSCA:1,2018-11-01T19:00:00Z,30.3288,-87.8293,1.966,6.2,1111122 
DISL,ioos:station:DISL:BSCA:1,2018-11-01T20:30:00Z,30.3288,-87.8293,1.897,6.25,1111122 
DISL,ioos:station:DISL:BSCA:1,2018-11-01T21:30:00Z,30.3288,-87.8293,1.868,6.81,1111122 
DISL,ioos:station:DISL:BSCA:1,2018-11-01T22:00:00Z,30.3288,-87.8293,1.874,6.66,1111122 
DISL,ioos:station:DISL:BSCA:1,2018-11-01T23:00:00Z,30.3288,-87.8293,1.873,6.51,1111122 
DISL,ioos:station:DISL:BSCA:1,2018-11-02T00:30:00Z,30.3288,-87.8293,1.94,6.19,1111122 
DISL,ioos:station:DISL:BSCA:1,2018-11-02T01:00:00Z,30.3288,-87.8293,1.951,6.51,1111122 
DISL,ioos:station:DISL:BSCA:1,2018-11-02T02:00:00Z,30.3288,-87.8293,2.003,6.4,1111122 
DISL,ioos:station:DISL:BSCA:1,2018-11-02T03:00:00Z,30.3288,-87.8293,2.049,6.6,1111122 
DISL,ioos:station:DISL:BSCA:1,2018-11-02T04:00:00Z,30.3288,-87.8293,2.063,6.55,1111122 
DISL,ioos:station:DISL:BSCA:1,2018-11-02T05:00:00Z,30.3288,-87.8293,2.131,6.45,1111122 
DISL,ioos:station:DISL:BSCA:1,2018-11-02T06:30:00Z,30.3288,-87.8293,2.117,6.43,1111122 
DISL,ioos:station:DISL:BSCA:1,2018-11-02T07:00:00Z,30.3288,-87.8293,2.068,6.52,1111122 
DISL,ioos:station:DISL:BSCA:1,2018-11-02T08:30:00Z,30.3288,-87.8293,2.051,6.58,1111122 
DISL,ioos:station:DISL:BSCA:1,2018-11-02T09:00:00Z,30.3288,-87.8293,2.05,6.49,1111122 
DISL,ioos:station:DISL:BSCA:1,2018-11-02T10:00:00Z,30.3288,-87.8293,2.046,6.39,1111122 
DISL,ioos:station:DISL:BSCA:1,2018-11-02T11:00:00Z,30.3288,-87.8293,2.094,6.58,1111122 
DISL,ioos:station:DISL:BSCA:1,2018-11-02T12:30:00Z,30.3288,-87.8293,2.005,6.59,1111122 
DISL,ioos:station:DISL:BSCA:1,2018-11-02T13:30:00Z,30.3288,-87.8293,2.0,6.53,1111122 
DISL,ioos:station:DISL:BSCA:1,2018-11-02T14:00:00Z,30.3288,-87.8293,1.986,6.59,1111122 
DISL,ioos:station:DISL:BSCA:1,2018-11-02T15:00:00Z,30.3288,-87.8293,1.968,6.67,1111122 
DISL,ioos:station:DISL:BSCA:1,2018-11-02T16:30:00Z,30.3288,-87.8293,1.861,6.78,1111122 
DISL,ioos:station:DISL:BSCA:1,2018-11-02T17:00:00Z,30.3288,-87.8293,1.853,6.81,1111122 
DISL,ioos:station:DISL:BSCA:1,2018-11-02T18:00:00Z,30.3288,-87.8293,1.823,6.79,1111122 
DISL,ioos:station:DISL:BSCA:1,2018-11-02T19:00:00Z,30.3288,-87.8293,1.785,6.78,1111122 
DISL,ioos:station:DISL:BSCA:1,2018-11-02T20:00:00Z,30.3288,-87.8293,1.738,6.98,1111122 
DISL,ioos:station:DISL:BSCA:1,2018-11-02T21:00:00Z,30.3288,-87.8293,1.672,6.9,1111122 
DISL,ioos:station:DISL:BSCA:1,2018-11-02T22:00:00Z,30.3288,-87.8293,1.637,6.87,1111122 
DISL,ioos:station:DISL:BSCA:1,2018-11-02T23:00:00Z,30.3288,-87.8293,1.628,6.43,1111122 
DISL,ioos:station:DISL:BSCA:1,2018-11-03T00:00:00Z,30.3288,-87.8293,1.617,5.89,1111122 
DISL,ioos:station:DISL:BSCA:1,2018-11-03T01:00:00Z,30.3288,-87.8293,1.653,6.39,1111122 
DISL,ioos:station:DISL:BSCA:1,2018-11-03T02:00:00Z,30.3288,-87.8293,1.731,6.51,1111122 
DISL,ioos:station:DISL:BSCA:1,2018-11-03T03:00:00Z,30.3288,-87.8293,1.793,6.45,1111122 
DISL,ioos:station:DISL:BSCA:1,2018-11-03T04:30:00Z,30.3288,-87.8293,1.848,6.26,1111122 
DISL,ioos:station:DISL:BSCA:1,2018-11-03T05:00:00Z,30.3288,-87.8293,1.87,6.2,1111122 
DISL,ioos:station:DISL:BSCA:1,2018-11-03T06:00:00Z,30.3288,-87.8293,1.892,6.39,1111122 
DISL,ioos:station:DISL:BSCA:1,2018-11-03T07:00:00Z,30.3288,-87.8293,1.889,6.56,1111122 
DISL,ioos:station:DISL:BSCA:1,2018-11-03T08:30:00Z,30.3288,-87.8293,1.891,6.63,1111122 
DISL,ioos:station:DISL:BSCA:1,2018-11-03T09:30:00Z,30.3288,-87.8293,1.855,6.46,1111122 
DISL,ioos:station:DISL:BSCA:1,2018-11-03T10:00:00Z,30.3288,-87.8293,1.829,6.5,1111122 
DISL,ioos:station:DISL:BSCA:1,2018-11-03T11:00:00Z,30.3288,-87.8293,1.801,5.88,1111122 
DISL,ioos:station:DISL:BSCA:1,2018-11-03T12:30:00Z,30.3288,-87.8293,1.807,6.25,1111122 
DISL,ioos:station:DISL:BSCA:1,2018-11-03T13:00:00Z,30.3288,-87.8293,1.799,6.15,1111122 
DISL,ioos:station:DISL:BSCA:1,2018-11-03T14:00:00Z,30.3288,-87.8293,1.803,6.17,1111122 
DISL,ioos:station:DISL:BSCA:1,2018-11-03T15:00:00Z,30.3288,-87.8293,1.796,6.19,1111122 
DISL,ioos:station:DISL:BSCA:1,2018-11-03T16:30:00Z,30.3288,-87.8293,1.755,5.79,1111122 
DISL,ioos:station:DISL:BSCA:1,2018-11-03T17:30:00Z,30.3288,-87.8293,1.722,5.31,1111122 
DISL,ioos:station:DISL:BSCA:1,2018-11-03T18:00:00Z,30.3288,-87.8293,1.701,5.51,1111122 
DISL,ioos:station:DISL:BSCA:1,2018-11-03T19:00:00Z,30.3288,-87.8293,1.653,7.12,1111122 
DISL,ioos:station:DISL:BSCA:1,2018-11-03T20:30:00Z,30.3288,-87.8293,1.589,6.48,1111122 
DISL,ioos:station:DISL:BSCA:1,2018-11-03T21:30:00Z,30.3288,-87.8293,1.57,7.19,1111122 
DISL,ioos:station:DISL:BSCA:1,2018-11-03T22:00:00Z,30.3288,-87.8293,1.573,7.14,1111122 
DISL,ioos:station:DISL:BSCA:1,2018-11-03T23:00:00Z,30.3288,-87.8293,1.597,6.93,1111122 
DISL,ioos:station:DISL:BSCA:1,2018-11-04T00:30:00Z,30.3288,-87.8293,1.661,5.28,1111122 
DISL,ioos:station:DISL:BSCA:1,2018-11-04T01:30:00Z,30.3288,-87.8293,1.698,5.2,1111122 
DISL,ioos:station:DISL:BSCA:1,2018-11-04T02:00:00Z,30.3288,-87.8293,1.703,5.61,1111122 
DISL,ioos:station:DISL:BSCA:1,2018-11-04T03:00:00Z,30.3288,-87.8293,1.744,5.96,1111122 
DISL,ioos:station:DISL:BSCA:1,2018-11-04T04:30:00Z,30.3288,-87.8293,1.786,6.66,1111122 
DISL,ioos:station:DISL:BSCA:1,2018-11-04T05:00:00Z,30.3288,-87.8293,1.792,6.59,1111122 
DISL,ioos:station:DISL:BSCA:1,2018-11-04T06:00:00Z,30.3288,-87.8293,1.803,6.06,1111122 
DISL,ioos:station:DISL:BSCA:1,2018-11-04T08:00:00Z,30.3288,-87.8293,1.746,6.72,1111122 
DISL,ioos:station:DISL:BSCA:1,2018-11-04T09:00:00Z,30.3288,-87.8293,1.721,6.79,1111122 
DISL,ioos:station:DISL:BSCA:1,2018-11-04T10:00:00Z,30.3288,-87.8293,1.716,6.15,1111122 
DISL,ioos:station:DISL:BSCA:1,2018-11-04T11:00:00Z,30.3288,-87.8293,1.722,6.43,1111122 
DISL,ioos:station:DISL:BSCA:1,2018-11-04T12:00:00Z,30.3288,-87.8293,1.707,5.97,1111122 
DISL,ioos:station:DISL:BSCA:1,2018-11-04T13:00:00Z,30.3288,-87.8293,1.671,6.93,1111122 
DISL,ioos:station:DISL:BSCA:1,2018-11-04T14:00:00Z,30.3288,-87.8293,1.671,6.08,1111122 
DISL,ioos:station:DISL:BSCA:1,2018-11-04T15:00:00Z,30.3288,-87.8293,1.659,6.86,1111122 
DISL,ioos:station:DISL:BSCA:1,2018-11-04T16:00:00Z,30.3288,-87.8293,1.656,7.41,1111122 
DISL,ioos:station:DISL:BSCA:1,2018-11-04T17:00:00Z,30.3288,-87.8293,1.674,7.38,1111122 
DISL,ioos:station:DISL:BSCA:1,2018-11-04T18:30:00Z,30.3288,-87.8293,1.696,7.33,1111122 
DISL,ioos:station:DISL:BSCA:1,2018-11-04T19:00:00Z,30.3288,-87.8293,1.697,7.34,1111122 
DISL,ioos:station:DISL:BSCA:1,2018-11-04T20:00:00Z,30.3288,-87.8293,1.699,7.81,1111122 
DISL,ioos:station:DISL:BSCA:1,2018-11-04T21:30:00Z,30.3288,-87.8293,1.707,7.52,1111122 
DISL,ioos:station:DISL:BSCA:1,2018-11-04T22:00:00Z,30.3288,-87.8293,1.716,7.38,1111122 
DISL,ioos:station:DISL:BSCA:1,2018-11-04T23:00:00Z,30.3288,-87.8293,1.744,7.81,1111122 
DISL,ioos:station:DISL:BSCA:1,2018-11-05T00:00:00Z,30.3288,-87.8293,1.811,6.41,1111122 
DISL,ioos:station:DISL:BSCA:1,2018-11-05T01:30:00Z,30.3288,-87.8293,1.879,6.16,1111122 
DISL,ioos:station:DISL:BSCA:1,2018-11-05T02:00:00Z,30.3288,-87.8293,1.917,6.31,1111122 
DISL,ioos:station:DISL:BSCA:1,2018-11-05T03:00:00Z,30.3288,-87.8293,1.921,6.66,1111122 
DISL,ioos:station:DISL:BSCA:1,2018-11-05T04:00:00Z,30.3288,-87.8293,1.948,7.12,1111122 
DISL,ioos:station:DISL:BSCA:1,2018-11-05T05:30:00Z,30.3288,-87.8293,2.037,7.6,1111122 
DISL,ioos:station:DISL:BSCA:1,2018-11-05T06:00:00Z,30.3288,-87.8293,1.967,7.24,1111122 
DISL,ioos:station:DISL:BSCA:1,2018-11-05T07:00:00Z,30.3288,-87.8293,1.838,7.84,1111122 
DISL,ioos:station:DISL:BSCA:1,2018-11-05T08:00:00Z,30.3288,-87.8293,1.73,6.04,1111122 
DISL,ioos:station:DISL:BSCA:1,2018-11-05T09:30:00Z,30.3288,-87.8293,1.75,6.89,1111122 
DISL,ioos:station:DISL:BSCA:1,2018-11-05T10:00:00Z,30.3288,-87.8293,1.739,7.33,1111122 
DISL,ioos:station:DISL:BSCA:1,2018-11-05T11:00:00Z,30.3288,-87.8293,1.704,6.41,1111122 
DISL,ioos:station:DISL:BSCA:1,2018-11-05T12:00:00Z,30.3288,-87.8293,1.707,6.35,1111122 
DISL,ioos:station:DISL:BSCA:1,2018-11-05T13:30:00Z,30.3288,-87.8293,1.746,5.64,1111122 
DISL,ioos:station:DISL:BSCA:1,2018-11-05T14:00:00Z,30.3288,-87.8293,1.777,5.33,1111122 
DISL,ioos:station:DISL:BSCA:1,2018-11-05T15:00:00Z,30.3288,-87.8293,1.83,6.62,1111122 
DISL,ioos:station:DISL:BSCA:1,2018-11-05T16:00:00Z,30.3288,-87.8293,1.851,7.33,1111122 
DISL,ioos:station:DISL:BSCA:1,2018-11-05T17:30:00Z,30.3288,-87.8293,1.869,6.75,1111122 
DISL,ioos:station:DISL:BSCA:1,2018-11-05T18:00:00Z,30.3288,-87.8293,1.877,5.99,1111122 
DISL,ioos:station:DISL:BSCA:1,2018-11-05T19:00:00Z,30.3288,-87.8293,1.875,6.89,1111122 
DISL,ioos:station:DISL:BSCA:1,2018-11-05T20:00:00Z,30.3288,-87.8293,1.852,7.87,1111122 
DISL,ioos:station:DISL:BSCA:1,2018-11-05T21:30:00Z,30.3288,-87.8293,1.851,7.48,1111122 
DISL,ioos:station:DISL:BSCA:1,2018-11-05T22:00:00Z,30.3288,-87.8293,1.856,8.14,1111122 
DISL,ioos:station:DISL:BSCA:1,2018-11-05T23:00:00Z,30.3288,-87.8293,1.902,8.69,1111122 
DISL,ioos:station:DISL:BSCA:1,2018-11-06T00:00:00Z,30.3288,-87.8293,1.944,8.06,1111122 
DISL,ioos:station:DISL:BSCA:1,2018-11-06T01:30:00Z,30.3288,-87.8293,1.989,7.1,1111122 
DISL,ioos:station:DISL:BSCA:1,2018-11-06T02:00:00Z,30.3288,-87.8293,2.008,6.06,1111122 
DISL,ioos:station:DISL:BSCA:1,2018-11-06T03:00:00Z,30.3288,-87.8293,2.023,5.43,1111122 
DISL,ioos:station:DISL:BSCA:1,2018-11-06T04:00:00Z,30.3288,-87.8293,2.022,8.73,1111122 
DISL,ioos:station:DISL:BSCA:1,2018-11-06T05:30:00Z,30.3288,-87.8293,1.976,8.51,1111122 
DISL,ioos:station:DISL:BSCA:1,2018-11-06T06:00:00Z,30.3288,-87.8293,1.962,8.27,1111122 
DISL,ioos:station:DISL:BSCA:1,2018-11-06T07:00:00Z,30.3288,-87.8293,1.932,8.37,1111122 
DISL,ioos:station:DISL:BSCA:1,2018-11-06T08:00:00Z,30.3288,-87.8293,1.882,8.24,1111122 
DISL,ioos:station:DISL:BSCA:1,2018-11-06T09:30:00Z,30.3288,-87.8293,1.78,7.76,1111122 
DISL,ioos:station:DISL:BSCA:1,2018-11-06T10:00:00Z,30.3288,-87.8293,1.768,7.44,1111122 
DISL,ioos:station:DISL:BSCA:1,2018-11-06T11:00:00Z,30.3288,-87.8293,1.748,7.64,1111122 
DISL,ioos:station:DISL:BSCA:1,2018-11-06T12:00:00Z,30.3288,-87.8293,1.746,7.42,1111122 
DISL,ioos:station:DISL:BSCA:1,2018-11-06T13:30:00Z,30.3288,-87.8293,1.71,6.7,1111122 
DISL,ioos:station:DISL:BSCA:1,2018-11-06T14:00:00Z,30.3288,-87.8293,1.698,6.11,1111122 
DISL,ioos:station:DISL:BSCA:1,2018-11-06T15:00:00Z,30.3288,-87.8293,1.698,6.92,1111122 
DISL,ioos:station:DISL:BSCA:1,2018-11-06T16:00:00Z,30.3288,-87.8293,1.77,6.39,1111122 
DISL,ioos:station:DISL:BSCA:1,2018-11-06T17:30:00Z,30.3288,-87.8293,1.796,6.3,1111122 
DISL,ioos:station:DISL:BSCA:1,2018-11-06T18:00:00Z,30.3288,-87.8293,1.839,8.12,1111122 
DISL,ioos:station:DISL:BSCA:1,2018-11-06T19:30:00Z,30.3288,-87.8293,1.84,7.35,1111122 
DISL,ioos:station:DISL:BSCA:1,2018-11-06T20:00:00Z,30.3288,-87.8293,1.846,6.56,1111122 
DISL,ioos:station:DISL:BSCA:1,2018-11-06T21:30:00Z,30.3288,-87.8293,1.882,7.18,1111122 
DISL,ioos:station:DISL:BSCA:1,2018-11-06T22:30:00Z,30.3288,-87.8293,1.885,8.13,1111122 
DISL,ioos:station:DISL:BSCA:1,2018-11-06T23:00:00Z,30.3288,-87.8293,1.886,7.68,1111122 
DISL,ioos:station:DISL:BSCA:1,2018-11-07T00:00:00Z,30.3288,-87.8293,1.882,5.95,1111122 
DISL,ioos:station:DISL:BSCA:1,2018-11-07T01:30:00Z,30.3288,-87.8293,1.913,7.48,1111122 
DISL,ioos:station:DISL:BSCA:1,2018-11-07T02:00:00Z,30.3288,-87.8293,1.923,6.73,1111122 
DISL,ioos:station:DISL:BSCA:1,2018-11-07T03:00:00Z,30.3288,-87.8293,1.958,5.37,1111122 
DISL,ioos:station:DISL:BSCA:1,2018-11-07T04:00:00Z,30.3288,-87.8293,1.982,6.4,1111122 
DISL,ioos:station:DISL:BSCA:1,2018-11-07T05:30:00Z,30.3288,-87.8293,1.938,5.45,1111122 
DISL,ioos:station:DISL:BSCA:1,2018-11-07T06:00:00Z,30.3288,-87.8293,1.906,3.79,1111122 
DISL,ioos:station:DISL:BSCA:1,2018-11-07T07:00:00Z,30.3288,-87.8293,1.864,4.98,1111122 
DISL,ioos:station:DISL:BSCA:1,2018-11-07T08:00:00Z,30.3288,-87.8293,1.797,5.92,1111122 
DISL,ioos:station:DISL:BSCA:1,2018-11-07T09:00:00Z,30.3288,-87.8293,1.723,6.32,1111122 
DISL,ioos:station:DISL:BSCA:1,2018-11-07T10:00:00Z,30.3288,-87.8293,1.684,6.83,1111122 
DISL,ioos:station:DISL:BSCA:1,2018-11-07T11:00:00Z,30.3288,-87.8293,1.634,6.06,1111122 
DISL,ioos:station:DISL:BSCA:1,2018-11-07T12:00:00Z,30.3288,-87.8293,1.581,6.38,1111122 
DISL,ioos:station:DISL:BSCA:1,2018-11-07T13:30:00Z,30.3288,-87.8293,1.594,4.48,1111122 
DISL,ioos:station:DISL:BSCA:1,2018-11-07T14:00:00Z,30.3288,-87.8293,1.598,4.49,1111122 
DISL,ioos:station:DISL:BSCA:1,2018-11-07T15:00:00Z,30.3288,-87.8293,1.631,4.31,1111122 
DISL,ioos:station:DISL:BSCA:1,2018-11-07T16:00:00Z,30.3288,-87.8293,1.689,5.13,1111122 
DISL,ioos:station:DISL:BSCA:1,2018-11-07T17:30:00Z,30.3288,-87.8293,1.772,4.98,1111122 
DISL,ioos:station:DISL:BSCA:1,2018-11-07T18:00:00Z,30.3288,-87.8293,1.793,5.58,1111122 
DISL,ioos:station:DISL:BSCA:1,2018-11-07T19:00:00Z,30.3288,-87.8293,1.842,5.78,1111122 
DISL,ioos:station:DISL:BSCA:1,2018-11-07T20:00:00Z,30.3288,-87.8293,1.875,5.89,1111122 
DISL,ioos:station:DISL:BSCA:1,2018-11-07T21:30:00Z,30.3288,-87.8293,1.917,5.97,1111122 
DISL,ioos:station:DISL:BSCA:1,2018-11-07T22:00:00Z,30.3288,-87.8293,1.931,5.14,1111122 
DISL,ioos:station:DISL:BSCA:1,2018-11-07T22:30:00Z,30.3288,-87.8293,1.95,5.11,1111122 
DISL,ioos:station:DISL:BSCA:1,2018-11-08T06:00:00Z,30.3288,-87.8293,2.042,4.36,1111122 
DISL,ioos:station:DISL:BSCA:1,2018-11-08T07:00:00Z,30.3288,-87.8293,1.947,3.16,1111122 
DISL,ioos:station:DISL:BSCA:1,2018-11-08T08:00:00Z,30.3288,-87.8293,1.86,4.78,1111122 
DISL,ioos:station:DISL:BSCA:1,2018-11-08T09:30:00Z,30.3288,-87.8293,1.745,1.78,1111122 
DISL,ioos:station:DISL:BSCA:1,2018-11-08T10:00:00Z,30.3288,-87.8293,1.72,1.61,1111122 
DISL,ioos:station:DISL:BSCA:1,2018-11-08T11:00:00Z,30.3288,-87.8293,1.669,2.62,1111122 
DISL,ioos:station:DISL:BSCA:1,2018-11-08T12:00:00Z,30.3288,-87.8293,1.614,2.79,1111122 
DISL,ioos:station:DISL:BSCA:1,2018-11-08T13:30:00Z,30.3288,-87.8293,1.542,2.92,1111122 
DISL,ioos:station:DISL:BSCA:1,2018-11-08T14:00:00Z,30.3288,-87.8293,1.527,2.8,1111122 
DISL,ioos:station:DISL:BSCA:1,2018-11-08T15:00:00Z,30.3288,-87.8293,1.526,2.23,1111122 
DISL,ioos:station:DISL:BSCA:1,2018-11-08T16:30:00Z,30.3288,-87.8293,1.555,1.87,1111122 
DISL,ioos:station:DISL:BSCA:1,2018-11-08T17:30:00Z,30.3288,-87.8293,1.607,2.78,1111122 
DISL,ioos:station:DISL:BSCA:1,2018-11-08T18:30:00Z,30.3288,-87.8293,1.681,2.44,1111122 
DISL,ioos:station:DISL:BSCA:1,2018-11-08T19:00:00Z,30.3288,-87.8293,1.709,2.63,1111122 
DISL,ioos:station:DISL:BSCA:1,2018-11-08T20:00:00Z,30.3288,-87.8293,1.735,4.01,1111122 
DISL,ioos:station:DISL:BSCA:1,2018-11-08T21:30:00Z,30.3288,-87.8293,1.807,6.21,1111122 
DISL,ioos:station:DISL:BSCA:1,2018-11-08T22:00:00Z,30.3288,-87.8293,1.836,4.78,1111122 
DISL,ioos:station:DISL:BSCA:1,2018-11-08T23:00:00Z,30.3288,-87.8293,1.898,4.35,1111122 
DISL,ioos:station:DISL:BSCA:1,2018-11-09T00:00:00Z,30.3288,-87.8293,1.9,5.86,1111122 
DISL,ioos:station:DISL:BSCA:1,2018-11-09T01:00:00Z,30.3288,-87.8293,1.928,5.49,1111122 
DISL,ioos:station:DISL:BSCA:1,2018-11-09T02:00:00Z,30.3288,-87.8293,1.989,5.7,1111122 
DISL,ioos:station:DISL:BSCA:1,2018-11-09T03:00:00Z,30.3288,-87.8293,2.059,5.07,1111122 
DISL,ioos:station:DISL:BSCA:1,2018-11-09T04:00:00Z,30.3288,-87.8293,2.06,5.61,1111122 
DISL,ioos:station:DISL:BSCA:1,2018-11-09T05:00:00Z,30.3288,-87.8293,2.05,2.52,1111122 
DISL,ioos:station:DISL:BSCA:1,2018-11-09T06:00:00Z,30.3288,-87.8293,2.037,2.41,1111122 
DISL,ioos:station:DISL:BSCA:1,2018-11-09T07:00:00Z,30.3288,-87.8293,1.989,1.99,1111122 
DISL,ioos:station:DISL:BSCA:1,2018-11-09T08:00:00Z,30.3288,-87.8293,1.936,2.32,1111122 
DISL,ioos:station:DISL:BSCA:1,2018-11-10T06:00:00Z,30.3288,-87.8293,1.76,6.91,1111122 
DISL,ioos:station:DISL:BSCA:1,2018-11-10T07:00:00Z,30.3288,-87.8293,1.717,7.0,1111122 
DISL,ioos:station:DISL:BSCA:1,2018-11-10T08:00:00Z,30.3288,-87.8293,1.632,6.96,1111122 
DISL,ioos:station:DISL:BSCA:1,2018-11-10T08:30:00Z,30.3288,-87.8293,1.594,6.95,1111122 
DISL,ioos:station:DISL:BSCA:1,2018-11-10T10:00:00Z,30.3288,-87.8293,1.539,6.88,1111122 
DISL,ioos:station:DISL:BSCA:1,2018-11-10T11:00:00Z,30.3288,-87.8293,1.451,6.79,1111122 
DISL,ioos:station:DISL:BSCA:1,2018-11-10T12:00:00Z,30.3288,-87.8293,1.373,6.77,1111122 
DISL,ioos:station:DISL:BSCA:1,2018-11-10T13:00:00Z,30.3288,-87.8293,1.318,6.73,1111122 
DISL,ioos:station:DISL:BSCA:1,2018-11-10T14:00:00Z,30.3288,-87.8293,1.271,6.9,1111122 
DISL,ioos:station:DISL:BSCA:1,2018-11-10T15:00:00Z,30.3288,-87.8293,1.252,6.98,1111122 
DISL,ioos:station:DISL:BSCA:1,2018-11-10T16:00:00Z,30.3288,-87.8293,1.239,7.0,1111122 
DISL,ioos:station:DISL:BSCA:1,2018-11-10T17:00:00Z,30.3288,-87.8293,1.246,7.03,1111122 
DISL,ioos:station:DISL:BSCA:1,2018-11-10T18:00:00Z,30.3288,-87.8293,1.315,7.1,1111122 
DISL,ioos:station:DISL:BSCA:1,2018-11-10T19:00:00Z,30.3288,-87.8293,1.395,7.3,1111122 
DISL,ioos:station:DISL:BSCA:1,2018-11-10T20:00:00Z,30.3288,-87.8293,1.444,7.22,1111122 
DISL,ioos:station:DISL:BSCA:1,2018-11-10T21:00:00Z,30.3288,-87.8293,1.488,7.59,1111122 
DISL,ioos:station:DISL:BSCA:1,2018-11-10T22:30:00Z,30.3288,-87.8293,1.548,7.54,1111122 
DISL,ioos:station:DISL:BSCA:1,2018-11-11T01:30:00Z,30.3288,-87.8293,1.658,7.4,1111122 
DISL,ioos:station:DISL:BSCA:1,2018-11-11T02:00:00Z,30.3288,-87.8293,1.702,7.2,1111122 
DISL,ioos:station:DISL:BSCA:1,2018-11-11T03:00:00Z,30.3288,-87.8293,1.752,7.42,1111122 
DISL,ioos:station:DISL:BSCA:1,2018-11-11T04:00:00Z,30.3288,-87.8293,1.775,7.34,1111122 
DISL,ioos:station:DISL:BSCA:1,2018-11-11T05:00:00Z,30.3288,-87.8293,1.802,7.34,1111122 
DISL,ioos:station:DISL:BSCA:1,2018-11-11T06:00:00Z,30.3288,-87.8293,1.825,7.34,1111122 
DISL,ioos:station:DISL:BSCA:1,2018-11-11T07:00:00Z,30.3288,-87.8293,1.806,6.76,1111122 
DISL,ioos:station:DISL:BSCA:1,2018-11-11T08:00:00Z,30.3288,-87.8293,1.8,7.0,1111122 
DISL,ioos:station:DISL:BSCA:1,2018-11-11T09:00:00Z,30.3288,-87.8293,1.775,7.01,1111122 
DISL,ioos:station:DISL:BSCA:1,2018-11-11T10:00:00Z,30.3288,-87.8293,1.734,6.11,1111122 
DISL,ioos:station:DISL:BSCA:1,2018-11-11T11:00:00Z,30.3288,-87.8293,1.666,6.2,1111122 
DISL,ioos:station:DISL:BSCA:1,2018-11-11T12:00:00Z,30.3288,-87.8293,1.591,6.79,1111122 
DISL,ioos:station:DISL:BSCA:1,2018-11-11T13:00:00Z,30.3288,-87.8293,1.538,6.49,1111122 
DISL,ioos:station:DISL:BSCA:1,2018-11-11T14:00:00Z,30.3288,-87.8293,1.479,7.11,1111122 
DISL,ioos:station:DISL:BSCA:1,2018-11-11T15:00:00Z,30.3288,-87.8293,1.445,7.44,1111122 
DISL,ioos:station:DISL:BSCA:1,2018-11-11T16:00:00Z,30.3288,-87.8293,1.426,7.49,1111122 
DISL,ioos:station:DISL:BSCA:1,2018-11-11T17:00:00Z,30.3288,-87.8293,1.425,8.41,1111122 
DISL,ioos:station:DISL:BSCA:1,2018-11-11T18:00:00Z,30.3288,-87.8293,1.441,7.58,1111122 
DISL,ioos:station:DISL:BSCA:1,2018-11-11T19:00:00Z,30.3288,-87.8293,1.502,7.93,1111122 
DISL,ioos:station:DISL:BSCA:1,2018-11-11T20:00:00Z,30.3288,-87.8293,1.556,7.12,1111122 
DISL,ioos:station:DISL:BSCA:1,2018-11-11T21:30:00Z,30.3288,-87.8293,1.608,5.53,1111122 
DISL,ioos:station:DISL:BSCA:1,2018-11-11T22:00:00Z,30.3288,-87.8293,1.637,5.63,1111122 
DISL,ioos:station:DISL:BSCA:1,2018-11-11T23:00:00Z,30.3288,-87.8293,1.69,6.14,1111122 
DISL,ioos:station:DISL:BSCA:1,2018-11-12T00:00:00Z,30.3288,-87.8293,1.733,6.74,1111122 
DISL,ioos:station:DISL:BSCA:1,2018-11-12T01:00:00Z,30.3288,-87.8293,1.765,8.2,1111122 
DISL,ioos:station:DISL:BSCA:1,2018-11-12T02:00:00Z,30.3288,-87.8293,1.813,6.92,1111122 
DISL,ioos:station:DISL:BSCA:1,2018-11-12T03:00:00Z,30.3288,-87.8293,1.89,6.92,1111122 
DISL,ioos:station:DISL:BSCA:1,2018-11-12T04:00:00Z,30.3288,-87.8293,1.94,6.86,1111122 
DISL,ioos:station:DISL:BSCA:1,2018-11-12T05:00:00Z,30.3288,-87.8293,1.98,6.68,1111122 
DISL,ioos:station:DISL:BSCA:1,2018-11-12T06:00:00Z,30.3288,-87.8293,2.004,6.83,1111122 
DISL,ioos:station:DISL:BSCA:1,2018-11-12T07:00:00Z,30.3288,-87.8293,1.992,6.85,1111122 
DISL,ioos:station:DISL:BSCA:1,2018-11-12T08:00:00Z,30.3288,-87.8293,1.96,7.22,1111122 
DISL,ioos:station:DISL:BSCA:1,2018-11-12T09:00:00Z,30.3288,-87.8293,1.883,8.1,1111122 
DISL,ioos:station:DISL:BSCA:1,2018-11-12T10:00:00Z,30.3288,-87.8293,1.803,7.97,1111122 
DISL,ioos:station:DISL:BSCA:1,2018-11-12T11:00:00Z,30.3288,-87.8293,1.78,7.24,1111122 
DISL,ioos:station:DISL:BSCA:1,2018-11-12T12:00:00Z,30.3288,-87.8293,1.781,7.17,1111122 
DISL,ioos:station:DISL:BSCA:1,2018-11-12T13:00:00Z,30.3288,-87.8293,1.744,7.0,1111122 
DISL,ioos:station:DISL:BSCA:1,2018-11-12T14:00:00Z,30.3288,-87.8293,1.69,7.87,1111122 
DISL,ioos:station:DISL:BSCA:1,2018-11-12T15:00:00Z,30.3288,-87.8293,1.686,7.83,1111122 
DISL,ioos:station:DISL:BSCA:1,2018-11-12T16:00:00Z,30.3288,-87.8293,1.765,7.63,1111122 
DISL,ioos:station:DISL:BSCA:1,2018-11-12T17:00:00Z,30.3288,-87.8293,1.786,7.86,1111122 
DISL,ioos:station:DISL:BSCA:1,2018-11-12T18:00:00Z,30.3288,-87.8293,1.825,8.11,1111122 
DISL,ioos:station:DISL:BSCA:1,2018-11-12T19:00:00Z,30.3288,-87.8293,1.846,8.08,1111122 
DISL,ioos:station:DISL:BSCA:1,2018-11-12T20:00:00Z,30.3288,-87.8293,1.856,8.04,1111122 
DISL,ioos:station:DISL:BSCA:1,2018-11-12T21:00:00Z,30.3288,-87.8293,1.873,8.05,1111122 
DISL,ioos:station:DISL:BSCA:1,2018-11-12T22:00:00Z,30.3288,-87.8293,1.899,7.84,1111122 
DISL,ioos:station:DISL:BSCA:1,2018-11-12T23:00:00Z,30.3288,-87.8293,1.944,7.47,1111122 
DISL,ioos:station:DISL:BSCA:1,2018-11-13T00:00:00Z,30.3288,-87.8293,1.961,7.03,1111122 
DISL,ioos:station:DISL:BSCA:1,2018-11-13T01:00:00Z,30.3288,-87.8293,1.961,5.97,1111122 
DISL,ioos:station:DISL:BSCA:1,2018-11-13T02:00:00Z,30.3288,-87.8293,1.947,6.37,1111122 
DISL,ioos:station:DISL:BSCA:1,2018-11-13T03:00:00Z,30.3288,-87.8293,2.016,5.78,1111122 
DISL,ioos:station:DISL:BSCA:1,2018-11-13T04:00:00Z,30.3288,-87.8293,2.097,6.93,1111122 
DISL,ioos:station:DISL:BSCA:1,2018-11-13T05:00:00Z,30.3288,-87.8293,2.137,6.44,1111122 
DISL,ioos:station:DISL:BSCA:1,2018-11-13T06:00:00Z,30.3288,-87.8293,2.131,7.05,1111122 
DISL,ioos:station:DISL:BSCA:1,2018-11-13T07:00:00Z,30.3288,-87.8293,2.189,7.57,1111122 
DISL,ioos:station:DISL:BSCA:1,2018-11-13T08:00:00Z,30.3288,-87.8293,2.174,7.7,1111122 
DISL,ioos:station:DISL:BSCA:1,2018-11-13T09:00:00Z,30.3288,-87.8293,2.0,7.67,1111122 
DISL,ioos:station:DISL:BSCA:1,2018-11-13T10:00:00Z,30.3288,-87.8293,1.923,6.84,1111122 
DISL,ioos:station:DISL:BSCA:1,2018-11-13T11:00:00Z,30.3288,-87.8293,1.936,7.19,1111122 
DISL,ioos:station:DISL:BSCA:1,2018-11-13T12:00:00Z,30.3288,-87.8293,1.894,7.34,1111122 
DISL,ioos:station:DISL:BSCA:1,2018-11-13T13:00:00Z,30.3288,-87.8293,1.776,7.33,1111122 
DISL,ioos:station:DISL:BSCA:1,2018-11-13T14:00:00Z,30.3288,-87.8293,1.694,7.33,1111122 
DISL,ioos:station:DISL:BSCA:1,2018-11-13T15:00:00Z,30.3288,-87.8293,1.655,7.38,1111122 
DISL,ioos:station:DISL:BSCA:1,2018-11-13T17:00:00Z,30.3288,-87.8293,1.585,7.57,1111122 